When you browse on this site, cookies collect data to enhance your experience and personalize the content and advertising you see.
Visit our Privacy Policy to learn more. By continuing to use the site, you agree to this use of cookies and data.
  • In Hungary
  • List of Countries
  • For 7 days
  • Water Temperature
  • Weather Map
  • News
  • Weather Widgets
  • user-avatar
    Login

    Hourly Weather Konstantyna

    Today, 27 February, Thursday

    Time Temperature Precipitation Wind Pressure Humidity
    00:00 +7°C° 0 mm 1 mps 711 mmHg 93%
    01:00 +7°C° 0 mm 1 mps 711 mmHg 92%
    02:00 +7°C° 0 mm 1 mps 711 mmHg 91%
    03:00 +6°C° 0 mm 1 mps 710 mmHg 90%
    04:00 +6°C° 0 mm 1 mps 711 mmHg 89%
    05:00 +6°C° 0 mm 1 mps 711 mmHg 88%
    06:00 +6°C° 0 mm 1 mps 711 mmHg 87%
    07:00 +8°C° 0 mm 1 mps 712 mmHg 76%
    08:00 +9°C° 0 mm 2 mps 712 mmHg 65%
    09:00 +12°C° 0 mm 2 mps 713 mmHg 54%
    10:00 +13°C° 0 mm 2 mps 713 mmHg 49%
    11:00 +15°C° 0 mm 2 mps 713 mmHg 44%
    12:00 +16°C° 0 mm 3 mps 713 mmHg 39%
    13:00 +16°C° 0 mm 3 mps 713 mmHg 39%
    14:00 +17°C° 0 mm 3 mps 712 mmHg 39%
    15:00 +17°C° 0 mm 4 mps 712 mmHg 39%
    16:00 +14°C° 0 mm 3 mps 712 mmHg 50%
    17:00 +13°C° 0 mm 2 mps 712 mmHg 60%
    18:00 +10°C° 0 mm 1 mps 711 mmHg 70%
    19:00 +10°C° 0 mm 1 mps 712 mmHg 72%
    20:00 +9°C° 0 mm 1 mps 712 mmHg 73%
    21:00 +8°C° 0 mm 0 mps 712 mmHg 75%
    22:00 +9°C° 0 mm 1 mps 712 mmHg 74%
    23:00 +8°C° 0 mm 1 mps 712 mmHg 74%

    Tomorrow, 28 February, Friday

    Time Temperature Precipitation Wind Pressure Humidity
    00:00 +8°C° 0 mm 1 mps 712 mmHg 74%
    01:00 +8°C° 0 mm 1 mps 712 mmHg 74%
    02:00 +8°C° 0 mm 1 mps 712 mmHg 73%
    03:00 +8°C° 0 mm 1 mps 711 mmHg 73%
    04:00 +8°C° 0 mm 1 mps 711 mmHg 73%
    05:00 +7°C° 0 mm 2 mps 712 mmHg 72%
    06:00 +7°C° 0 mm 2 mps 712 mmHg 72%
    07:00 +9°C° 0 mm 2 mps 712 mmHg 64%
    08:00 +13°C° 0 mm 2 mps 713 mmHg 55%
    09:00 +15°C° 0 mm 2 mps 714 mmHg 47%
    10:00 +17°C° 0 mm 2 mps 714 mmHg 42%
    11:00 +18°C° 0 mm 2 mps 714 mmHg 38%
    12:00 +19°C° 0 mm 3 mps 714 mmHg 33%
    13:00 +19°C° 0 mm 2 mps 713 mmHg 33%
    14:00 +20°C° 0 mm 2 mps 713 mmHg 33%
    15:00 +20°C° 0 mm 2 mps 713 mmHg 33%
    16:00 +18°C° 0 mm 1 mps 713 mmHg 43%
    17:00 +15°C° 0 mm 1 mps 712 mmHg 52%
    18:00 +12°C° 0 mm 1 mps 712 mmHg 62%
    19:00 +12°C° 0 mm 1 mps 712 mmHg 64%
    20:00 +11°C° 0 mm 1 mps 712 mmHg 65%
    21:00 +10°C° 0 mm 1 mps 712 mmHg 67%
    22:00 +10°C° 0 mm 1 mps 712 mmHg 64%
    23:00 +11°C° 0 mm 1 mps 711 mmHg 60%

    Day after tomorrow, 29 February, Saturday

    Time Temperature Precipitation Wind Pressure Humidity
    00:00 +10°C° 0 mm 2 mps 711 mmHg 56%
    01:00 +9°C° 0 mm 2 mps 710 mmHg 54%
    02:00 +9°C° 0 mm 2 mps 710 mmHg 52%
    03:00 +9°C° 0 mm 2 mps 709 mmHg 50%
    04:00 +9°C° 0 mm 2 mps 709 mmHg 49%
    05:00 +9°C° 0 mm 2 mps 709 mmHg 48%
    06:00 +9°C° 0 mm 3 mps 709 mmHg 47%
    07:00 +12°C° 0 mm 3 mps 709 mmHg 44%
    08:00 +14°C° 0 mm 3 mps 710 mmHg 42%
    09:00 +18°C° 0 mm 3 mps 710 mmHg 39%
    10:00 +19°C° 0 mm 4 mps 710 mmHg 36%
    11:00 +21°C° 0 mm 4 mps 711 mmHg 33%
    12:00 +23°C° 0 mm 5 mps 711 mmHg 30%
    13:00 +23°C° 0 mm 5 mps 710 mmHg 31%
    14:00 +23°C° 0 mm 5 mps 710 mmHg 33%
    15:00 +23°C° 0 mm 5 mps 709 mmHg 34%
    16:00 +20°C° 0 mm 4 mps 709 mmHg 41%
    17:00 +18°C° 0 mm 3 mps 709 mmHg 48%
    18:00 +15°C° 0 mm 2 mps 709 mmHg 56%
    19:00 +15°C° 0 mm 2 mps 709 mmHg 54%
    20:00 +14°C° 0 mm 2 mps 709 mmHg 52%
    21:00 +13°C° 0 mm 2 mps 709 mmHg 51%
    22:00 +13°C° 0 mm 2 mps 709 mmHg 51%
    23:00 +12°C° 0 mm 2 mps 709 mmHg 51%

    1 March, Sunday

    Time Temperature Precipitation Wind Pressure Humidity
    00:00 +12°C° 0 mm 2 mps 709 mmHg 51%
    01:00 +12°C° 0 mm 2 mps 709 mmHg 51%
    02:00 +10°C° 0 mm 2 mps 708 mmHg 52%
    03:00 +10°C° 0 mm 2 mps 708 mmHg 52%
    04:00 +10°C° 0 mm 2 mps 708 mmHg 54%
    05:00 +10°C° 0 mm 1 mps 708 mmHg 56%
    06:00 +10°C° 0 mm 1 mps 708 mmHg 57%
    07:00 +12°C° 0 mm 1 mps 709 mmHg 53%
    08:00 +15°C° 0 mm 1 mps 709 mmHg 48%
    09:00 +17°C° 0 mm 2 mps 710 mmHg 44%
    10:00 +18°C° 0 mm 2 mps 710 mmHg 43%
    11:00 +19°C° 0 mm 3 mps 710 mmHg 42%
    12:00 +20°C° 0 mm 4 mps 710 mmHg 40%
    13:00 +19°C° 0 mm 4 mps 709 mmHg 45%
    14:00 +18°C° 0 mm 4 mps 709 mmHg 50%
    15:00 +18°C° 0 mm 4 mps 708 mmHg 55%
    16:00 +16°C° 0 mm 3 mps 709 mmHg 64%
    17:00 +14°C° 0 mm 2 mps 709 mmHg 72%
    18:00 +13°C° 0 mm 1 mps 709 mmHg 81%
    19:00 +12°C° 0 mm 1 mps 709 mmHg 82%
    20:00 +12°C° 0 mm 1 mps 709 mmHg 84%
    21:00 +11°C° 0 mm 1 mps 709 mmHg 85%
    22:00 +11°C° 0 mm 1 mps 709 mmHg 86%
    23:00 +10°C° 0 mm 1 mps 709 mmHg 86%

    2 March, Monday

    Time Temperature Precipitation Wind Pressure Humidity
    00:00 +10°C° 0 mm 1 mps 709 mmHg 86%
    01:00 +10°C° 0 mm 1 mps 709 mmHg 86%
    02:00 +10°C° 0 mm 1 mps 708 mmHg 87%
    03:00 +9°C° 0 mm 1 mps 708 mmHg 87%
    04:00 +9°C° 0 mm 1 mps 708 mmHg 86%
    05:00 +10°C° 0 mm 1 mps 707 mmHg 85%
    06:00 +10°C° 0 mm 1 mps 707 mmHg 84%
    07:00 +12°C° 0 mm 2 mps 707 mmHg 76%
    08:00 +14°C° 0 mm 2 mps 708 mmHg 68%
    09:00 +16°C° 0 mm 2 mps 708 mmHg 60%
    10:00 +17°C° 0 mm 4 mps 708 mmHg 54%
    11:00 +17°C° 0 mm 5 mps 707 mmHg 48%
    12:00 +18°C° 0 mm 7 mps 707 mmHg 43%
    13:00 +17°C° 0.1 mm 6 mps 706 mmHg 51%
    14:00 +16°C° 0.1 mm 6 mps 706 mmHg 59%
    15:00 +14°C° 0.1 mm 5 mps 705 mmHg 67%
    16:00 +14°C° 0.1 mm 5 mps 705 mmHg 69%
    17:00 +13°C° 0.1 mm 5 mps 705 mmHg 72%
    18:00 +11°C° 0.1 mm 6 mps 705 mmHg 75%
    19:00 +10°C° 0.1 mm 5 mps 704 mmHg 77%
    20:00 +11°C° 0.1 mm 4 mps 704 mmHg 79%
    21:00 +10°C° 0.1 mm 4 mps 704 mmHg 81%
    22:00 +10°C° 0.8 mm 3 mps 704 mmHg 84%
    23:00 +10°C° 0.8 mm 3 mps 704 mmHg 87%

    3 March, Tuesday

    Time Temperature Precipitation Wind Pressure Humidity
    00:00 +10°C° 0.8 mm 3 mps 704 mmHg 91%
    01:00 +8°C° 0.5 mm 5 mps 704 mmHg 89%
    02:00 +7°C° 0.5 mm 6 mps 704 mmHg 87%
    03:00 +6°C° 0.5 mm 8 mps 704 mmHg 86%
    04:00 +5°C° 0 mm 8 mps 705 mmHg 87%
    05:00 +5°C° 0 mm 8 mps 705 mmHg 87%
    06:00 +4°C° 0 mm 8 mps 706 mmHg 88%
    07:00 +5°C° 0.1 mm 8 mps 706 mmHg 84%
    08:00 +6°C° 0.1 mm 9 mps 707 mmHg 80%
    09:00 +6°C° 0.1 mm 9 mps 708 mmHg 76%
    10:00 +7°C° 0.1 mm 9 mps 708 mmHg 71%
    11:00 +8°C° 0.1 mm 10 mps 708 mmHg 66%
    12:00 +8°C° 0.1 mm 10 mps 708 mmHg 61%
    13:00 +8°C° 0 mm 10 mps 708 mmHg 61%
    14:00 +8°C° 0 mm 9 mps 708 mmHg 60%
    15:00 +8°C° 0 mm 9 mps 708 mmHg 59%
    16:00 +8°C° 0 mm 7 mps 708 mmHg 65%
    17:00 +7°C° 0 mm 5 mps 708 mmHg 71%
    18:00 +5°C° 0 mm 3 mps 708 mmHg 77%
    19:00 +5°C° 0 mm 3 mps 708 mmHg 78%
    20:00 +6°C° 0 mm 2 mps 709 mmHg 79%
    21:00 +5°C° 0 mm 2 mps 709 mmHg 80%
    22:00 +5°C° 0 mm 2 mps 709 mmHg 79%
    23:00 +5°C° 0 mm 2 mps 709 mmHg 79%
    Show more